Weather History for Los Alamos, NM

Change the Weather History Date:

Friday, August 2, 2013

  Actual Average Record
Temperature  
Mean Temperature 68 °F -  
Max Temperature 78 °F 79 °F 89 °F (2008)
Min Temperature 59 °F 54 °F 47 °F (1965)
Cooling Degree Days 4    
Growing Degree Days 18 (Base 50)    
Moisture  
Dew Point 56 °F    
Average Humidity 68    
Maximum Humidity 99    
Minimum Humidity 35    
Precipitation  
Precipitation 0.04 in - - ()
Sea Level Pressure  
Sea Level Pressure 30.30 in    
Wind  
Wind Speed 3 mph (WNW)    
Max Wind Speed 17 mph    
Max Gust Speed 24 mph    
Visibility 10 miles    
Events Rain    
Averages and records for this station are not official NWS values.
T = Trace of Precipitation, MM = Missing Value Source: NWS Daily Summary

Daily Weather History Graph

Daily Weather History Graph

Search for Another Location

Airport:

Trip Planner

Search our weather history database for the weather conditions in past years. The results will help you decide how hot, cold, wet, or windy it might be!

Date:

Astronomy

Aug. 02, 2013 Rise Set
Actual Time 6:13 AM MDT 8:08 PM MDT
Civil Twilight 5:45 AM MDT 8:36 PM MDT
Nautical Twilight 5:11 AM MDT 9:10 PM MDT
Astronomical Twilight 4:34 AM MDT 9:46 PM MDT
Moon 2:38 AM MDT (8/2) 5:06 PM MDT (8/2)
Length of Visible Light 14h 50m
Length of Day
13h 54m
Waning Crescent, 15% of the Moon is Illuminated
Aug 2
Waning Crescent
Aug 6
New
Aug 14
First Quarter
Aug 20
Full
Aug 28
Last Quarter

Hourly Weather History & Observations

Time (MDT) Temp. Dew Point Humidity Pressure Visibility Wind Dir Wind Speed Gust Speed Precip Events Conditions
12:15 AM 60.8 °F 59.5 °F 96% 30.33 in 10.0 mi ENE 4.6 mph - 0.01 in   Drizzle
12:55 AM 60.4 °F 59.2 °F 96% 30.32 in 10.0 mi Calm Calm - 0.01 in   Scattered Clouds
1:15 AM 59.9 °F 59.0 °F 97% 30.31 in 10.0 mi Calm Calm - N/A   Scattered Clouds
1:35 AM 60.1 °F 59.4 °F 97% 30.30 in 10.0 mi Calm Calm - N/A   Scattered Clouds
1:55 AM 59.9 °F 59.2 °F 97% 30.30 in 10.0 mi NW 3.5 mph - N/A   Mostly Cloudy
2:15 AM 59.9 °F 58.8 °F 96% 30.29 in 10.0 mi Calm Calm - N/A   Overcast
2:35 AM 59.4 °F 59.0 °F 99% 30.29 in 10.0 mi North 3.5 mph - N/A   Overcast
2:55 AM 59.9 °F 58.5 °F 95% 30.29 in 10.0 mi NNW 3.5 mph - N/A   Scattered Clouds
3:15 AM 59.9 °F 58.5 °F 95% 30.29 in 10.0 mi NNW 5.8 mph - N/A   Mostly Cloudy
3:35 AM 60.4 °F 57.2 °F 89% 30.29 in 10.0 mi Calm Calm - N/A   Overcast
3:55 AM 60.3 °F 57.0 °F 89% 30.29 in 10.0 mi NW 4.6 mph - N/A   Overcast
4:15 AM 61.0 °F 56.5 °F 85% 30.28 in 10.0 mi Calm Calm - N/A   Overcast
4:35 AM 60.8 °F 57.9 °F 90% 30.29 in 10.0 mi Calm Calm - N/A   Overcast
4:55 AM 61.2 °F 57.7 °F 88% 30.28 in 10.0 mi Calm Calm - N/A   Overcast
5:15 AM 61.5 °F 57.2 °F 86% 30.27 in 10.0 mi Calm Calm - N/A   Overcast
5:35 AM 61.5 °F 57.0 °F 85% 30.29 in 10.0 mi Calm Calm - N/A   Overcast
5:55 AM 60.3 °F 57.2 °F 90% 30.29 in 10.0 mi Calm Calm - N/A   Overcast
6:35 AM 59.0 °F 58.1 °F 97% 30.31 in 10.0 mi North 3.5 mph - N/A   Overcast
6:55 AM 59.9 °F 57.7 °F 93% 30.31 in 10.0 mi Calm Calm - N/A   Overcast
7:15 AM 60.1 °F 56.8 °F 89% 30.31 in 10.0 mi Calm Calm - N/A   Overcast
7:35 AM 60.6 °F 57.6 °F 90% 30.31 in 10.0 mi Calm Calm - N/A   Overcast
7:55 AM 59.9 °F 58.1 °F 94% 30.31 in 10.0 mi North 3.5 mph - N/A   Overcast
8:15 AM 61.2 °F 56.8 °F 86% 30.32 in 10.0 mi Calm Calm - N/A   Mostly Cloudy
8:35 AM 62.1 °F 57.9 °F 86% 30.32 in 10.0 mi Calm Calm - N/A   Scattered Clouds
8:55 AM 63.0 °F 56.3 °F 79% 30.32 in 10.0 mi SE 3.5 mph - N/A   Scattered Clouds
9:15 AM 63.5 °F 57.7 °F 81% 30.33 in 10.0 mi Calm Calm - N/A   Scattered Clouds
9:35 AM 64.6 °F 57.2 °F 77% 30.33 in 10.0 mi WSW 3.5 mph - N/A   Clear
9:55 AM 68.0 °F 57.7 °F 70% 30.33 in 10.0 mi NNW 3.5 mph - N/A   Scattered Clouds
10:15 AM 68.5 °F 57.0 °F 67% 30.33 in 10.0 mi North 4.6 mph - N/A   Mostly Cloudy
10:35 AM 71.1 °F 57.2 °F 61% 30.33 in 10.0 mi NE 3.5 mph - N/A   Scattered Clouds
10:55 AM 70.7 °F 57.9 °F 64% 30.33 in 10.0 mi NNE 5.8 mph - N/A   Clear
11:15 AM 72.0 °F 56.7 °F 58% 30.33 in 10.0 mi Calm Calm - N/A   Scattered Clouds
11:35 AM 73.4 °F 56.5 °F 55% 30.32 in 10.0 mi ESE 3.5 mph - N/A   Mostly Cloudy
11:55 AM 74.5 °F 56.3 °F 53% 30.32 in 10.0 mi NE 6.9 mph - N/A   Scattered Clouds
12:15 PM 75.6 °F 56.7 °F 52% 30.31 in 10.0 mi NE 6.9 mph - N/A   Scattered Clouds
12:35 PM 75.0 °F 57.0 °F 53% 30.31 in 10.0 mi Calm Calm - N/A   Scattered Clouds
12:55 PM 74.7 °F 56.7 °F 53% 30.31 in 10.0 mi Calm Calm - N/A   Mostly Cloudy
1:15 PM 74.7 °F 56.3 °F 53% 30.30 in 10.0 mi East 3.5 mph - N/A   Mostly Cloudy
1:35 PM 74.5 °F 56.1 °F 53% 30.29 in 10.0 mi ESE 4.6 mph - N/A   Scattered Clouds
1:55 PM 73.8 °F 55.9 °F 54% 30.29 in 10.0 mi Calm Calm - N/A   Clear
2:15 PM 74.3 °F 55.6 °F 52% 30.28 in 10.0 mi SSE 3.5 mph - N/A   Clear
2:35 PM 74.5 °F 55.9 °F 52% 30.28 in 10.0 mi South 4.6 mph - N/A   Clear
2:55 PM 74.7 °F 56.5 °F 53% 30.28 in 10.0 mi West 5.8 mph - N/A   Clear
3:15 PM 74.5 °F 55.8 °F 52% 30.27 in 10.0 mi SW 5.8 mph - N/A   Clear
3:35 PM 74.1 °F 55.6 °F 52% 30.26 in 10.0 mi Calm Calm - N/A   Clear
3:55 PM 74.1 °F 53.1 °F 48% 30.25 in 10.0 mi West 4.6 mph - N/A   Clear
4:15 PM 73.9 °F 56.1 °F 54% 30.24 in 10.0 mi SW 4.6 mph - N/A   Scattered Clouds
4:35 PM 75.6 °F 55.2 °F 49% 30.24 in 10.0 mi WSW 3.5 mph - N/A   Mostly Cloudy
4:55 PM 77.4 °F 51.8 °F 41% 30.23 in 10.0 mi SSE 4.6 mph - N/A   Scattered Clouds
5:15 PM 78.6 °F 50.4 °F 37% 30.24 in 10.0 mi Calm Calm - N/A   Clear
5:35 PM 78.4 °F 50.9 °F 38% 30.25 in 10.0 mi SW 5.8 mph - N/A   Clear
5:55 PM 77.9 °F 51.3 °F 39% 30.24 in 10.0 mi SSW 3.5 mph - N/A   Clear
6:15 PM 77.4 °F 51.8 °F 41% 30.24 in 10.0 mi SSW 4.6 mph - N/A   Clear
6:35 PM 77.2 °F 52.5 °F 42% 30.24 in 10.0 mi South 3.5 mph - N/A   Clear
6:55 PM 76.6 °F 53.4 °F 44% 30.24 in 10.0 mi SW 4.6 mph - N/A   Clear
7:15 PM 75.6 °F 52.7 °F 45% 30.25 in 10.0 mi West 10.4 mph - N/A   Clear
7:35 PM 74.8 °F 48.4 °F 39% 30.25 in 10.0 mi West 10.4 mph 16.1 mph N/A   Scattered Clouds
7:55 PM 74.3 °F 45.0 °F 35% 30.25 in 10.0 mi West 5.8 mph 17.3 mph N/A   Scattered Clouds
8:15 PM 72.9 °F 46.6 °F 39% 30.25 in 10.0 mi West 8.1 mph - N/A   Clear
8:35 PM 72.7 °F 47.3 °F 40% 30.26 in 10.0 mi West 8.1 mph - N/A   Clear
8:55 PM 72.5 °F 46.4 °F 39% 30.27 in 10.0 mi West 9.2 mph - N/A   Mostly Cloudy
9:15 PM 72.5 °F 46.2 °F 39% 30.28 in 10.0 mi West 17.3 mph 24.2 mph N/A   Mostly Cloudy
9:35 PM 70.7 °F 49.5 °F 47% 30.32 in 10.0 mi SSE 9.2 mph 21.9 mph N/A   Overcast
9:55 PM 68.5 °F 53.1 °F 58% 30.33 in 10.0 mi SSE 3.5 mph - 0.01 in Rain Rain
10:15 PM 67.3 °F 54.9 °F 64% 30.34 in 10.0 mi Calm Calm - N/A   Overcast
10:35 PM 65.5 °F 56.3 °F 72% 30.36 in 10.0 mi NE 6.9 mph - N/A   Overcast
10:55 PM 64.4 °F 57.2 °F 77% 30.38 in 10.0 mi East 6.9 mph - N/A Rain Rain
11:15 PM 62.1 °F 57.9 °F 86% 30.39 in 10.0 mi North 3.5 mph - N/A Rain Rain
11:35 PM 60.8 °F 60.1 °F 97% 30.37 in 7.0 mi NNW 10.4 mph 17.3 mph 0.02 in Rain Light Rain
11:55 PM 60.6 °F 59.9 °F 97% 30.37 in 10.0 mi NW 13.8 mph 18.4 mph 0.02 in Rain Light Rain